Location: Heiligenberg
(48.5381°N, 7.3897°E)
Time: 02:54:52
(UTC+00:00)

Helios 1A - Pass Details

Date: 26 May 2022
Orbit: 581 x 601 km, 98.2° (Epoch: 23 April)

Event Time Altitude Azimuth Distance (km) Brightness Sun altitude
Exits shadow 02:53:26 - 214° (SW) 2,130 5.2 -6.6°
Reaches altitude 10° 02:54:04 10° 219° (SW) 1,931 4.9 -6.5°
Maximum altitude 02:57:11 20° 268° (W) 1,401 4.5 -6.1°
Drops below altitude 10° 03:00:20 10° 316° (NW) 1,950 5.6 -5.7°
Sets 03:03:01 0° 333° (NNW) 2,861 6.7 -5.4°
